Terminal Aerodrome Forecast
Issued by NWS

Home | Current Version | Previous Version | Text Only | Print | Product List | Glossary On
Versions: 1 2 3 4 5 6 7 8 9 10 11 12 13 14
000
FTUS45 KRIW 231720
TAFBPI
TAF
KBPI 231720Z 2318/2418 21008KT P6SM SCT080 BKN200
     FM232200 28012G19KT P6SM VCTS SCT035 BKN060CB
     FM240130 34009KT P6SM VCSH BKN060
     FM240400 31007KT P6SM BKN070
     FM241400 VRB06KT P6SM VCSH SCT040 BKN070
     FM241600 22009KT 6SM -SHRA SCT015 BKN025 OVC035=

USA.gov is the U.S. government's official web portal to all federal, state and local government web resources and services.